Weather History for Fort Smith, AR

Change the Weather History Date:

Tuesday, August 6, 2013

  Actual Average Record
Temperature  
Mean Temperature 89 °F 83 °F  
Max Temperature 99 °F 94 °F 111 °F (2011)
Min Temperature 78 °F 72 °F 54 °F (1894)
Cooling Degree Days 24 18  
Month to date cooling degree days 122 108  
Year to date cooling degree days 1383 1273  
Since 1 June cooling degree days 1109 1029  
Growing Degree Days 38 (Base 50)    
Moisture  
Dew Point 73 °F    
Average Humidity 67    
Maximum Humidity 91    
Minimum Humidity 42    
Precipitation  
Precipitation 0.00 in 0.09 in 5.09 in (1971)
Month to date precipitation 0.10 0.54  
Year to date precipitation 31.13 27.31  
Sea Level Pressure  
Sea Level Pressure 29.83 in    
Wind  
Wind Speed 4 mph (South)    
Max Wind Speed 12 mph    
Max Gust Speed 15 mph    
Visibility 10 miles    
Events      
T = Trace of Precipitation, MM = Missing Value Source: NWS Daily Summary

Daily Weather History Graph

Daily Weather History Graph

Search for Another Location

Airport:

Trip Planner

Search our weather history database for the weather conditions in past years. The results will help you decide how hot, cold, wet, or windy it might be!

Date:

Astronomy

Aug. 06, 2013 Rise Set
Actual Time 6:30 AM CDT 8:15 PM CDT
Civil Twilight 6:02 AM CDT 8:43 PM CDT
Nautical Twilight 5:29 AM CDT 9:16 PM CDT
Astronomical Twilight 4:53 AM CDT 9:51 PM CDT
Moon 6:20 AM CDT (8/6) 7:54 PM CDT (8/6)
Length of Visible Light 14h 40m
Length of Day
13h 45m
Waning Crescent, 0% of the Moon is Illuminated
Aug 6
Waning Crescent
Aug 6
New
Aug 14
First Quarter
Aug 20
Full
Aug 28
Last Quarter

Hourly Weather History & Observations

Time (CDT) Temp. Heat Index Dew Point Humidity Pressure Visibility Wind Dir Wind Speed Gust Speed Precip Events Conditions
12:53 AM 84.9 °F 90.7 °F 72.0 °F 65% 29.85 in 10.0 mi South 3.5 mph - N/A   Partly Cloudy
1:53 AM 86.0 °F 92.2 °F 72.0 °F 63% 29.85 in 10.0 mi Calm Calm - N/A   Clear
2:53 AM 84.0 °F 89.6 °F 72.0 °F 67% 29.81 in 10.0 mi Calm Calm - N/A   Clear
3:53 AM 81.0 °F 85.8 °F 73.0 °F 77% 29.83 in 10.0 mi North 3.5 mph - N/A   Clear
4:53 AM 80.1 °F 84.5 °F 73.9 °F 81% 29.83 in 10.0 mi Calm Calm - N/A   Clear
5:53 AM 79.0 °F - 73.9 °F 84% 29.83 in 10.0 mi Calm Calm - N/A   Clear
6:53 AM 78.1 °F - 75.0 °F 90% 29.85 in 10.0 mi Calm Calm - N/A   Clear
7:53 AM 80.1 °F 85.1 °F 75.0 °F 85% 29.88 in 10.0 mi Calm Calm - N/A   Clear
8:53 AM 84.0 °F 91.9 °F 75.0 °F 74% 29.88 in 10.0 mi ESE 3.5 mph - N/A   Clear
9:53 AM 88.0 °F 94.7 °F 72.0 °F 59% 29.87 in 10.0 mi South 4.6 mph - N/A   Partly Cloudy
10:53 AM 90.0 °F 96.4 °F 71.1 °F 54% 29.87 in 10.0 mi Variable 6.9 mph - N/A   Partly Cloudy
11:53 AM 93.0 °F 100.1 °F 71.1 °F 49% 29.87 in 10.0 mi SW 6.9 mph - N/A   Clear
12:53 PM 95.0 °F 103.2 °F 72.0 °F 47% 29.86 in 10.0 mi South 5.8 mph - N/A   Clear
1:53 PM 97.0 °F 107.0 °F 73.0 °F 46% 29.85 in 10.0 mi Variable 5.8 mph - N/A   Clear
2:53 PM 98.1 °F 107.2 °F 72.0 °F 43% 29.83 in 10.0 mi SSW 6.9 mph - N/A   Clear
3:53 PM 99.0 °F 109.3 °F 73.0 °F 43% 29.82 in 10.0 mi WSW 6.9 mph - N/A   Clear
4:53 PM 98.1 °F 109.5 °F 73.9 °F 46% 29.81 in 10.0 mi SSW 3.5 mph - N/A   Clear
5:53 PM 98.1 °F 109.5 °F 73.9 °F 46% 29.80 in 10.0 mi Variable 5.8 mph - N/A   Clear
6:53 PM 96.1 °F 105.6 °F 73.0 °F 47% 29.78 in 10.0 mi SSW 8.1 mph - N/A   Clear
7:53 PM 93.0 °F 103.2 °F 73.9 °F 54% 29.78 in 10.0 mi South 4.6 mph - N/A   Clear
8:53 PM 90.0 °F 100.2 °F 75.0 °F 61% 29.79 in 10.0 mi South 3.5 mph - N/A   Clear
9:53 PM 88.0 °F 97.5 °F 75.0 °F 65% 29.81 in 10.0 mi South 6.9 mph - N/A   Clear
10:53 PM 87.1 °F 95.4 °F 73.9 °F 65% 29.82 in 10.0 mi SSE 4.6 mph - N/A   Clear
11:53 PM 86.0 °F 93.8 °F 73.9 °F 67% 29.82 in 10.0 mi SSE 3.5 mph - N/A   Clear